Location: The Saddle
(36.8333°N, 80.3417°W)
Time: 06:45:46
(UTC-05:00)

A-11 Canister half - Pass Details

Date: 15 December 2023
Orbit: 1512 x 1687 km, 47.2° (Epoch: 27 February)

Event Time Altitude Azimuth Distance (km) Brightness Sun altitude
Rises 18:30:07 0° 176° (S) 4,636 11.7 -16.3°
Reaches altitude 10° 18:34:48 10° 155° (SSE) 3,665 10.9 -17.2°
Maximum altitude 18:39:39 15° 123° (ESE) 3,265 10.3 -18.1°
Enters shadow 18:41:07 15° 112° (ESE) 3,314 10.3 -18.4°
Drops below altitude 10° 18:44:32 10° 91° (E) 3,714 - -19.0°
Sets 18:49:17 0° 71° (ENE) 4,731 - -20.0°
